[ hide orbit diagram ]
For accurate long-term ephemerides, please instead use our Horizons system.This orbit viewer was implemented using two-body methods, and hence should not be used for determining accurate long-term trajectories (over several years or decades) or planetary encounter circumstances.
Orbital Elements at Epoch 2459200.5 (2020-Dec-17.0) TDB
Reference: JPL 44 (heliocentric ecliptic J2000)
Element | Value | Uncertainty (1-sigma) | Units |
e | .01856816551125358 | 1.2837e-08 | |
a | 2.887190685237592 | 1.1782e-08 | au |
q | 2.833580850731551 | 4.2082e-08 | au |
i | 2.977637721371972 | 5.9708e-07 | deg |
node | 128.9394583717159 | 1.4969e-05 | deg |
peri | 135.8313222228636 | 6.8351e-05 | deg |
M | 241.5688740943053 | 6.9428e-05 | deg |
tp | 2459789.988023487434 (2022-Jul-29.48802349) | 0.00034594 | TDB |
period | 1791.891167398521 4.91 | 1.0969e-05 3.003e-08 | d yr |
n | .2009050586050103 | 1.2298e-09 | deg/d |
Q | 2.940800519743633 | 1.2001e-08 | au |
|
| | Orbit Determination Parameters
Additional Information
|
[ show covariance matrix ]
Physical Parameter Table
Parameter |
Symbol |
Value |
Units |
Sigma |
Reference |
Notes |
absolute magnitude |
H |
13.3 |
|
n/a |
MPO358746 |
|
diameter |
diameter |
6.906 |
km |
0.162 |
urn:nasa:pds:neowise_diameters_albedos::2.0[mainbelt] (http://adsabs.harvard.edu/abs/2011ApJ...741...68M) |
|
geometric albedo |
albedo |
0.213 |
|
0.027 |
urn:nasa:pds:neowise_diameters_albedos::2.0[mainbelt] (http://adsabs.harvard.edu/abs/2011ApJ...741...68M) |
|
|
11944 Shaftesbury | Discovered 1993 July 20 by E. W. Elst at the European Southern Observatory. |
Anthony Ashley Cooper Shaftesbury (1671-1713) was an English politician and philosopher. Educated by philosopher John Locke, he soon developed his own school of thought. His philosophy was also influenced by the "Cambridge Platonists", who stressed the existence of a natural moral sense. |
NOTE: some special characters may not display properly (any characters within {} are an attempt to place the proper accent above a character) |
Reference: 20000523/MPCPages.arc | Last Updated: 2013-03-29 |
|
[ show close-approach data ]
Alternate Designations
1993 OK9 = 1989 TZ2 = 1993 ON13 |
|
|